This is the latest recevied weather packets stored in our database for station/object 4S6DRJ-13. If no packets are shown the sender has not sent any weather packets the latest 10 day(s).
| Time | Temp. | Humidity | Pressure | Rain* | Wind** | Luminosity | Snow |
|---|---|---|---|---|---|---|---|
| 1788372702 | 27.78° C | 85% | 1011.2 hPa | 0 mm | 0.45 m/s, 241° | 0 W/m² | - |
| 1788372640 | 27.78° C | 85% | 1011.1 hPa | 0 mm | 0.89 m/s, 212° | 0 W/m² | - |
| 1788372579 | 27.78° C | 85% | 1011.1 hPa | 0 mm | 0.45 m/s, 200° | 0 W/m² | - |
| 1788372518 | 27.78° C | 85% | 1011.1 hPa | 0 mm | 0.89 m/s, 240° | 0 W/m² | - |
| 1788372457 | 27.78° C | 85% | 1011.1 hPa | 0 mm | 0.89 m/s, 192° | 0 W/m² | - |
| 1788372396 | 27.78° C | 85% | 1011.1 hPa | 0 mm | 1.79 m/s, 237° | 0 W/m² | - |
| 1788372335 | 27.78° C | 85% | 1011.1 hPa | 0 mm | 0.89 m/s, 235° | 0 W/m² | - |
| 1788372274 | 27.78° C | 85% | 1011.2 hPa | 0 mm | 1.34 m/s, 268° | 0 W/m² | - |
| 1788372213 | 27.78° C | 85% | 1011.1 hPa | 0 mm | 0.45 m/s, 258° | 0 W/m² | - |
| 1788372153 | 27.78° C | 85% | 1011.1 hPa | 0 mm | 1.34 m/s, 208° | 0 W/m² | - |
| 1788372091 | 27.78° C | 85% | 1011 hPa | 0 mm | 1.79 m/s, 206° | 0 W/m² | - |
| 1788372030 | 27.78° C | 85% | 1011.1 hPa | 0 mm | 0.45 m/s, 245° | 0 W/m² | - |
| 1788371969 | 27.78° C | 85% | 1010.9 hPa | 0 mm | 0.45 m/s, 194° | 0 W/m² | - |
| 1788371908 | 27.78° C | 85% | 1011.1 hPa | 0 mm | 0.45 m/s, 220° | 0 W/m² | - |
| 1788371847 | 27.78° C | 85% | 1011.1 hPa | 0 mm | 0.45 m/s, 218° | 0 W/m² | - |
| 1788371786 | 27.78° C | 85% | 1011.1 hPa | 0 mm | 0.89 m/s, 253° | 0 W/m² | - |
| 1788371725 | 27.78° C | 86% | 1011.2 hPa | 0 mm | 1.34 m/s, 249° | 0 W/m² | - |
| 1788371665 | 27.78° C | 86% | 1011.1 hPa | 0 mm | 1.34 m/s, 113° | 0 W/m² | - |
| 1788371603 | 27.78° C | 86% | 1011.2 hPa | 0 mm | 0.89 m/s, 148° | 0 W/m² | - |
| 1788371542 | 27.78° C | 86% | 1011.2 hPa | 0 mm | 0.89 m/s, 221° | 0 W/m² | - |
| 1788371481 | 27.78° C | 86% | 1011.1 hPa | 0 mm | 0.89 m/s, 220° | 0 W/m² | - |
| 1788371420 | 27.78° C | 86% | 1011.1 hPa | 0 mm | 1.34 m/s, 220° | 0 W/m² | - |
| 1788371359 | 27.78° C | 86% | 1011 hPa | 0 mm | 1.34 m/s, 190° | 0 W/m² | - |
| 1788371298 | 27.78° C | 86% | 1011.1 hPa | 0 mm | 0.45 m/s, 177° | 0 W/m² | - |
| 1788371237 | 27.78° C | 86% | 1011.2 hPa | 0 mm | 0.89 m/s, 224° | 0 W/m² | - |
* Rain latest hour (hover to see other rain measurements)
** Current wind speed in m/s (hover to see current wind gust speed)